Date String (YYYY-MM-DD hh:mm:ss) UTC,Instrument flags,Ambient pressure (hPa),Sample flow (lpm),Bypass flow (lpm),Sample temperature (°C),Ambient temperature (°C),ASC tube jacket temperature (°C),LED temperature (°C),Box temperature (°C),Sample RH (%),Span deviation,Mass concentration (μg/m³),Mass concentration (μg/m³),Mass concentration (μg/m³)
DateTimeUTC,F1_M11,P_M11,Q1_M11,Q2_M11,T1_M11,T2_M11,T3_M11,T4_M11,T5_M11,U1_M11,ZSPAN_M11,X0_M11,X2_M11,X1_M11
2022-04-12 06:00:00,,0803.0,5.01,0.00,26.6,25.6,00.0,35.8,28.3,14.8,0000.0,0012.06,0003.99,0001.73
2022-04-12 06:01:00,,0803.0,5.01,0.00,26.6,25.6,00.0,35.8,28.3,14.8,0000.0,0012.30,0004.07,0001.75
2022-04-12 06:02:00,,0803.0,4.99,0.00,26.6,25.6,00.0,35.8,28.3,14.9,0000.0,0012.65,0004.03,0001.73
2022-04-12 06:03:00,,0803.0,5.00,0.00,26.5,25.6,00.0,35.7,28.3,15.0,0000.0,0013.08,0004.10,0001.73
2022-04-12 06:04:00,,0803.0,5.00,0.00,26.5,25.5,00.0,35.7,28.2,15.1,0000.0,0013.14,0004.07,0001.72
2022-04-12 06:05:00,,0803.1,5.01,0.00,26.5,25.5,00.0,35.7,28.2,15.2,0000.0,0013.71,0004.06,0001.70
2022-04-12 06:06:00,,0803.1,5.02,0.00,26.5,25.5,00.0,35.7,28.2,15.2,0000.0,0014.15,0004.09,0001.73
2022-04-12 06:07:00,,0803.0,4.98,0.00,26.5,25.4,00.0,35.7,28.2,15.3,0000.0,0014.09,0004.11,0001.74
2022-04-12 06:08:00,,0803.0,5.01,0.00,26.4,25.4,00.0,35.6,28.2,15.3,0000.0,0014.51,0004.12,0001.76
2022-04-12 06:09:00,,0802.9,4.98,0.00,26.4,25.4,00.0,35.6,28.1,15.4,0000.0,0014.56,0004.14,0001.76
2022-04-12 06:10:00,,0802.8,5.00,0.00,26.4,25.4,00.0,35.6,28.1,15.5,0000.0,0014.28,0004.12,0001.75
2022-04-12 06:11:00,,0802.8,5.00,0.00,26.4,25.3,00.0,35.6,28.1,15.5,0000.0,0013.89,0004.09,0001.75
2022-04-12 06:12:00,,0802.8,5.01,0.00,26.4,25.3,00.0,35.6,28.1,15.6,0000.0,0013.74,0004.05,0001.74
2022-04-12 06:13:00,,0802.8,4.98,0.00,26.3,25.3,00.0,35.5,28.1,15.7,0000.0,0013.94,0004.07,0001.74
2022-04-12 06:14:00,,0802.8,5.01,0.00,26.3,25.3,00.0,35.5,28.0,15.7,0000.0,0013.26,0004.01,0001.73
2022-04-12 06:15:00,,0802.9,5.01,0.00,26.3,25.3,00.0,35.5,28.0,15.7,0000.0,0013.14,0004.06,0001.77
2022-04-12 06:16:00,,0802.9,4.99,0.00,26.3,25.3,00.0,35.5,28.0,15.8,0000.0,0012.43,0004.10,0001.80
2022-04-12 06:17:00,,0802.9,5.00,0.00,26.3,25.2,00.0,35.5,28.0,15.8,0000.0,0011.76,0004.11,0001.80
2022-04-12 06:18:00,,0802.8,5.00,0.00,26.2,25.2,00.0,35.4,28.0,15.9,0000.0,0011.81,0004.11,0001.80
2022-04-12 06:19:00,,0802.9,5.00,0.00,26.2,25.2,00.0,35.4,28.0,15.9,0000.0,0011.71,0004.18,0001.79
2022-04-12 06:20:00,,0802.9,4.99,0.00,26.2,25.2,00.0,35.4,27.9,16.0,0000.0,0011.32,0004.14,0001.78
2022-04-12 06:21:00,,0802.9,5.00,0.00,26.2,25.2,00.0,35.4,27.9,16.0,0000.0,0011.37,0004.15,0001.77
2022-04-12 06:22:00,,0802.9,5.01,0.00,26.2,25.1,00.0,35.4,27.9,16.0,0000.0,0011.57,0004.24,0001.79
2022-04-12 06:23:00,,0802.8,4.99,0.00,26.2,25.1,00.0,35.3,27.9,16.1,0000.0,0011.85,0004.25,0001.76
2022-04-12 06:24:00,,0802.7,5.01,0.00,26.1,25.1,00.0,35.3,27.8,16.1,0000.0,0012.03,0004.23,0001.74
2022-04-12 06:25:00,,0802.8,4.99,0.00,26.1,25.1,00.0,35.3,27.8,16.2,0000.0,0012.24,0004.20,0001.73
2022-04-12 06:26:00,,0802.7,4.99,0.00,26.1,25.1,00.0,35.3,27.8,16.2,0000.0,0012.31,0004.23,0001.73
2022-04-12 06:27:00,,0802.8,5.01,0.00,26.0,25.0,00.0,35.2,27.7,16.2,0000.0,0012.16,0004.22,0001.70
2022-04-12 06:28:00,,0802.8,5.00,0.00,26.0,25.0,00.0,35.2,27.7,16.3,0000.0,0012.10,0004.20,0001.69
2022-04-12 06:29:00,,0802.8,4.99,0.00,26.0,25.0,00.0,35.2,27.7,16.3,0000.0,0011.93,0004.26,0001.69
2022-04-12 06:30:00,,0802.7,5.02,0.00,26.0,25.0,00.0,35.2,27.7,16.3,0000.0,0011.77,0004.24,0001.68
2022-04-12 06:31:00,,0802.7,4.99,0.00,26.0,24.9,00.0,35.2,27.7,16.3,0000.0,0011.76,0004.25,0001.67
2022-04-12 06:32:00,,0802.8,5.00,0.00,25.9,24.9,00.0,35.2,27.6,16.4,0000.0,0011.55,0004.22,0001.67
2022-04-12 06:33:00,,0802.7,5.00,0.00,25.9,24.8,00.0,35.1,27.6,16.4,0000.0,0011.69,0004.26,0001.66
2022-04-12 06:34:00,,0802.7,5.01,0.00,25.9,24.8,00.0,35.1,27.6,16.5,0000.0,0011.41,0004.18,0001.66
2022-04-12 06:35:00,,0802.7,4.99,0.00,25.8,24.7,00.0,35.1,27.6,16.5,0000.0,0011.22,0004.17,0001.65
2022-04-12 06:36:00,,0802.7,5.01,0.00,25.8,24.7,00.0,35.1,27.5,16.5,0000.0,0011.08,0004.21,0001.65
2022-04-12 06:37:00,,0802.5,4.99,0.00,25.8,24.7,00.0,35.0,27.5,16.3,0000.0,0011.23,0004.21,0001.65
2022-04-12 06:38:00,,0802.3,4.98,0.00,25.8,24.6,00.0,35.0,27.5,16.2,0000.0,0011.76,0004.29,0001.64
2022-04-12 06:39:00,,0802.2,5.02,0.00,25.7,24.5,00.0,35.0,27.4,16.1,0000.0,0013.55,0004.38,0001.65
2022-04-12 06:40:00,,0802.1,4.99,0.00,25.7,24.4,00.0,34.9,27.4,16.1,0000.0,0014.70,0004.51,0001.67
2022-04-12 06:41:00,,0802.1,5.00,0.00,25.7,24.4,00.0,34.9,27.3,16.0,0000.0,0018.44,0004.74,0001.72
2022-04-12 06:42:00,,0801.9,4.99,0.00,25.6,24.3,00.0,34.9,27.3,15.8,0000.0,0023.32,0005.02,0001.78
2022-04-12 06:43:00,,0801.8,5.01,0.00,25.6,24.3,00.0,34.8,27.3,15.9,0000.0,0025.22,0005.20,0001.80
2022-04-12 06:44:00,,0801.8,5.00,0.00,25.6,24.4,00.0,34.8,27.3,16.2,0000.0,0026.60,0005.31,0001.82
2022-04-12 06:45:00,,0801.8,5.00,0.00,25.6,24.4,00.0,34.8,27.4,16.2,0000.0,0027.64,0005.57,0001.88
2022-04-12 06:46:00,,0801.8,4.99,0.00,25.6,24.5,00.0,34.8,27.4,16.3,0000.0,0029.15,0005.67,0001.91
2022-04-12 06:47:00,,0802.0,5.01,0.00,25.7,24.6,00.0,34.8,27.5,16.3,0000.0,0029.12,0005.71,0001.94
2022-04-12 06:48:00,,0802.1,4.99,0.00,25.7,24.6,00.0,34.8,27.5,16.0,0000.0,0029.02,0005.74,0001.94
2022-04-12 06:49:00,,0802.1,5.01,0.00,25.7,24.7,00.0,34.8,27.5,15.9,0000.0,0028.92,0005.75,0001.95
2022-04-12 06:50:00,,0802.1,4.99,0.00,25.7,24.7,00.0,34.8,27.5,16.1,0000.0,0027.93,0005.74,0001.94
2022-04-12 06:51:00,,0802.3,5.01,0.00,25.8,24.7,00.0,34.8,27.5,16.3,0000.0,0026.78,0005.60,0001.89
2022-04-12 06:52:00,,0802.2,4.99,0.00,25.8,24.7,00.0,34.8,27.5,16.4,0000.0,0023.44,0005.42,0001.85
2022-04-12 06:53:00,,0802.2,5.00,0.00,25.8,24.7,00.0,34.8,27.6,16.5,0000.0,0018.99,0005.24,0001.81
2022-04-12 06:54:00,,0802.2,5.00,0.00,25.8,24.7,00.0,34.8,27.5,16.6,0000.0,0017.40,0005.17,0001.79
2022-04-12 06:55:00,,0802.2,5.00,0.00,25.8,24.7,00.0,34.7,27.6,16.7,0000.0,0016.12,0005.11,0001.77
2022-04-12 06:56:00,,0802.3,5.01,0.00,25.8,24.7,00.0,34.7,27.6,16.7,0000.0,0015.29,0004.95,0001.73
2022-04-12 06:57:00,,0802.3,4.99,0.00,25.8,24.7,00.0,34.7,27.6,16.8,0000.0,0013.63,0004.87,0001.69
2022-04-12 06:58:00,,0802.3,5.02,0.00,25.8,24.7,00.0,34.7,27.6,16.7,0000.0,0013.35,0004.84,0001.66
2022-04-12 06:59:00,,0802.2,4.99,0.00,25.8,24.7,00.0,34.7,27.6,16.7,0000.0,0013.20,0004.82,0001.62
